| time (UTC) | temp C | wind direction | speed KPH | gust KPH | rain 1hr cm | rain 24hr cm | rain mn cm | humidity % | barometer mb |
| 20260504212904 | 18 | 354 | 4.8 | 14.5 | 0.00 | 0.10 | 0.10 | 51 | 1003.1 |
| 20260504212404 | 17 | 58 | 3.2 | 16.1 | 0.00 | 0.10 | 0.10 | 49 | 1003.2 |
| 20260504211904 | 17 | 44 | 3.2 | 14.5 | 0.00 | 0.10 | 0.10 | 51 | 1003.2 |
| 20260504211404 | 17 | 51 | 3.2 | 9.7 | 0.00 | 0.10 | 0.10 | 51 | 1003.2 |
| 20260504210904 | 17 | 32 | 1.6 | 19.3 | 0.00 | 0.10 | 0.10 | 52 | 1003.2 |
| 20260504210404 | 17 | 78 | 3.2 | 20.9 | 0.00 | 0.10 | 0.10 | 51 | 1003.1 |
| 20260504205904 | 17 | 48 | 4.8 | 19.3 | 0.00 | 0.10 | 0.10 | 51 | 1003.2 |
| 20260504205404 | 17 | 42 | 6.4 | 19.3 | 0.00 | 0.10 | 0.10 | 51 | 1003.2 |
| 20260504204904 | 16 | 45 | 0.0 | 19.3 | 0.00 | 0.10 | 0.10 | 53 | 1003.2 |
| 20260504204404 | 16 | 42 | 1.6 | 14.5 | 0.00 | 0.10 | 0.10 | 51 | 1003.2 |
| 20260504203904 | 16 | 39 | 19.3 | 27.4 | 0.00 | 0.10 | 0.10 | 51 | 1003.2 |
| 20260504202904 | 17 | 27 | 9.7 | 25.7 | 0.00 | 0.10 | 0.10 | 50 | 1003.2 |
| 20260504202404 | 17 | 49 | 4.8 | 19.3 | 0.00 | 0.10 | 0.10 | 52 | 1003.1 |
| 20260504201904 | 17 | 72 | 6.4 | 29.0 | 0.00 | 0.10 | 0.10 | 51 | 1003.1 |
| 20260504201404 | 17 | 64 | 8.0 | 20.9 | 0.00 | 0.10 | 0.10 | 51 | 1003.2 |
| 20260504200904 | 17 | 27 | 14.5 | 24.1 | 0.00 | 0.10 | 0.10 | 51 | 1003.1 |
| 20260504200404 | 17 | 28 | 11.3 | 24.1 | 0.00 | 0.10 | 0.10 | 51 | 1003.2 |
| 20260504195904 | 17 | 31 | 4.8 | 20.9 | 0.00 | 0.10 | 0.10 | 54 | 1003.2 |
| 20260504194904 | 16 | 101 | 4.8 | 19.3 | 0.00 | 0.10 | 0.10 | 53 | 1003.1 |
| 20260504193904 | 16 | 40 | 1.6 | 19.3 | 0.00 | 0.10 | 0.10 | 53 | 1003.4 |
| 20260504193404 | 17 | 43 | 3.2 | 19.3 | 0.00 | 0.10 | 0.10 | 54 | 1003.4 |
| 20260504192904 | 16 | 32 | 14.5 | 25.7 | 0.00 | 0.10 | 0.10 | 58 | 1003.4 |
| 20260504192404 | 16 | 13 | 8.0 | 20.9 | 0.00 | 0.10 | 0.10 | 56 | 1003.3 |
| 20260504190905 | 15 | 35 | 12.9 | 20.9 | 0.00 | 0.10 | 0.10 | 58 | 1003.4 |
| 20260504190404 | 15 | 13 | 6.4 | 19.3 | 0.00 | 0.10 | 0.10 | 61 | 1003.5 |
| 20260504185904 | 15 | 31 | 8.0 | 19.3 | 0.00 | 0.10 | 0.10 | 59 | 1003.5 |
| 20260504184404 | 15 | 42 | 11.3 | 20.9 | 0.00 | 0.10 | 0.10 | 59 | 1003.8 |
| 20260504183405 | 15 | 37 | 4.8 | 19.3 | 0.00 | 0.10 | 0.10 | 61 | 1003.9 |
| 20260504182906 | 15 | 62 | 14.5 | 27.4 | 0.00 | 0.10 | 0.10 | 63 | 1004.0 |
| 20260504182404 | 15 | 17 | 14.5 | 27.4 | 0.00 | 0.10 | 0.10 | 64 | 1004.0 |
| 20260504181904 | 14 | 9 | 14.5 | 27.4 | 0.00 | 0.10 | 0.10 | 62 | 1004.0 |
| 20260504181404 | 15 | 16 | 14.5 | 37.0 | 0.00 | 0.10 | 0.10 | 64 | 1004.0 |
| 20260504180905 | 15 | 24 | 4.8 | 29.0 | 0.00 | 0.10 | 0.10 | 66 | 1004.0 |
| 20260504180404 | 15 | 12 | 16.1 | 27.4 | 0.00 | 0.10 | 0.10 | 67 | 1003.9 |
| 20260504175405 | 14 | 24 | 8.0 | 19.3 | 0.00 | 0.10 | 0.10 | 72 | 1004.0 |
| 20260504174904 | 13 | 9 | 11.3 | 19.3 | 0.03 | 0.10 | 0.10 | 74 | 1004.0 |
| 20260504174404 | 13 | 68 | 0.0 | 4.8 | 0.03 | 0.10 | 0.10 | 76 | 1004.1 |
| 20260504173905 | 13 | 79 | 3.2 | 16.1 | 0.03 | 0.10 | 0.10 | 76 | 1004.1 |
| 20260504173404 | 13 | 81 | 9.7 | 19.3 | 0.03 | 0.10 | 0.10 | 76 | 1004.2 |
| 20260504172904 | 12 | 80 | 8.0 | 19.3 | 0.03 | 0.10 | 0.10 | 81 | 1004.3 |
| 20260504172404 | 12 | 67 | 4.8 | 14.5 | 0.03 | 0.10 | 0.10 | 80 | 1004.3 |
| 20260504171905 | 12 | 66 | 4.8 | 14.5 | 0.05 | 0.10 | 0.10 | 80 | 1004.2 |
| 20260504171405 | 12 | 49 | 0.0 | 0.0 | 0.08 | 0.10 | 0.10 | 83 | 1004.4 |
| 20260504160404 | 12 | 32 | 3.2 | 12.9 | 0.00 | 0.00 | 0.00 | 71 | 1004.0 |
| 20260504150904 | 13 | 301 | 4.8 | 16.1 | 0.00 | 0.00 | 0.00 | 61 | 1003.3 |
| 20260504140904 | 11 | 341 | 12.9 | 22.5 | 0.00 | 0.00 | 0.00 | 64 | 1004.3 |
| 20260504140404 | 10 | 316 | 8.0 | 22.5 | 0.00 | 0.00 | 0.00 | 65 | 1004.5 |
| 20260504130404 | 5 | 67 | 0.0 | 0.0 | 0.00 | 0.00 | 0.00 | 77 | 1005.4 |
| 20260504110404 | 1 | 67 | 0.0 | 1.6 | 0.00 | 0.00 | 0.00 | 90 | 1006.1 |
| 20260504100404 | -1 | 67 | 0.0 | 0.0 | 0.00 | 0.00 | 0.00 | 94 | 1006.1 |
| 20260504081904 | -1 | 67 | 0.0 | 0.0 | 0.00 | 0.00 | 0.00 | 92 | 1005.9 |
| 20260504081404 | -1 | 67 | 0.0 | 0.0 | 0.00 | 0.00 | 0.00 | 92 | 1005.8 |
| 20260504080904 | -1 | 67 | 0.0 | 0.0 | 0.00 | 0.00 | 0.00 | 92 | 1005.8 |
| 20260504050404 | 1 | 67 | 0.0 | 0.0 | 0.00 | 0.00 | 0.00 | 82 | 1005.3 |
| 20260504045904 | 1 | 67 | 0.0 | 0.0 | 0.00 | 0.00 | 0.00 | 82 | 1005.3 |
| 20260504045404 | 1 | 67 | 0.0 | 0.0 | 0.00 | 0.00 | 0.00 | 81 | 1005.3 |
| 20260504044904 | 1 | 67 | 0.0 | 0.0 | 0.00 | 0.00 | 0.00 | 81 | 1005.4 |
| 20260504044404 | 1 | 67 | 0.0 | 0.0 | 0.00 | 0.00 | 0.00 | 79 | 1005.4 |
| 20260504043904 | 1 | 67 | 0.0 | 0.0 | 0.00 | 0.00 | 0.00 | 78 | 1005.4 |
| 20260504042904 | 2 | 67 | 0.0 | 0.0 | 0.00 | 0.00 | 0.00 | 78 | 1005.3 |
| 20260504041904 | 2 | 67 | 0.0 | 0.0 | 0.00 | 0.00 | 0.00 | 75 | 1005.4 |
| 20260504040904 | 2 | 67 | 0.0 | 0.0 | 0.00 | 0.03 | 0.00 | 70 | 1005.3 |
| 20260504040404 | 3 | 67 | 0.0 | 0.0 | 0.00 | 0.03 | 0.00 | 69 | 1005.2 |
| 20260504035904 | 3 | 67 | 0.0 | 0.0 | 0.00 | 0.03 | 0.03 | 68 | 1005.2 |
| 20260504035404 | 4 | 67 | 0.0 | 0.0 | 0.00 | 0.03 | 0.03 | 66 | 1005.2 |
| 20260504034904 | 5 | 67 | 0.0 | 0.0 | 0.00 | 0.03 | 0.03 | 65 | 1005.1 |
| 20260504034404 | 4 | 67 | 0.0 | 0.0 | 0.00 | 0.03 | 0.03 | 66 | 1005.1 |
| 20260504033904 | 4 | 67 | 0.0 | 0.0 | 0.00 | 0.03 | 0.03 | 66 | 1005.0 |
| 20260504033404 | 5 | 67 | 0.0 | 0.0 | 0.00 | 0.03 | 0.03 | 65 | 1005.0 |
| 20260504032404 | 4 | 67 | 0.0 | 0.0 | 0.00 | 0.03 | 0.03 | 66 | 1005.0 |
| 20260504031904 | 5 | 67 | 0.0 | 0.0 | 0.00 | 0.03 | 0.03 | 65 | 1005.0 |
| 20260504031404 | 5 | 67 | 0.0 | 0.0 | 0.00 | 0.03 | 0.03 | 65 | 1005.0 |
| 20260504030904 | 5 | 67 | 0.0 | 0.0 | 0.00 | 0.03 | 0.03 | 65 | 1005.0 |
| 20260504030404 | 5 | 67 | 0.0 | 0.0 | 0.00 | 0.03 | 0.03 | 65 | 1005.0 |
| 20260504025904 | 5 | 67 | 0.0 | 0.0 | 0.00 | 0.03 | 0.03 | 65 | 1005.0 |
| 20260504025404 | 5 | 67 | 0.0 | 1.6 | 0.00 | 0.03 | 0.03 | 65 | 1004.9 |
| 20260504024904 | 5 | 67 | 0.0 | 1.6 | 0.00 | 0.03 | 0.03 | 65 | 1005.0 |
| 20260504024403 | 5 | 67 | 1.6 | 8.0 | 0.00 | 0.03 | 0.03 | 65 | 1005.0 |
| 20260504023904 | 4 | 67 | 0.0 | 0.0 | 0.00 | 0.03 | 0.03 | 65 | 1005.0 |
| 20260504023404 | 4 | 67 | 0.0 | 0.0 | 0.00 | 0.03 | 0.03 | 65 | 1005.0 |
| 20260504022404 | 4 | 67 | 0.0 | 0.0 | 0.00 | 0.03 | 0.03 | 65 | 1004.9 |
| 20260504021404 | 5 | 67 | 0.0 | 0.0 | 0.00 | 0.03 | 0.03 | 64 | 1005.0 |
| 20260504020404 | 5 | 67 | 0.0 | 0.0 | 0.00 | 0.03 | 0.03 | 64 | 1004.9 |
| 20260504015404 | 5 | 67 | 0.0 | 0.0 | 0.00 | 0.03 | 0.03 | 63 | 1004.9 |
| 20260504014904 | 5 | 67 | 0.0 | 0.0 | 0.00 | 0.03 | 0.03 | 63 | 1004.9 |
| 20260504014404 | 5 | 67 | 0.0 | 0.0 | 0.00 | 0.03 | 0.03 | 62 | 1004.9 |
| 20260504013904 | 5 | 67 | 0.0 | 0.0 | 0.00 | 0.03 | 0.03 | 61 | 1004.9 |
| 20260504013404 | 5 | 67 | 0.0 | 0.0 | 0.00 | 0.03 | 0.03 | 60 | 1004.8 |
| 20260504012904 | 5 | 67 | 0.0 | 3.2 | 0.00 | 0.03 | 0.03 | 60 | 1004.8 |
| 20260504012404 | 6 | 67 | 1.6 | 4.8 | 0.00 | 0.03 | 0.03 | 59 | 1004.7 |
| 20260504011904 | 6 | 67 | 0.0 | 1.6 | 0.00 | 0.03 | 0.03 | 59 | 1004.7 |
| 20260504010904 | 6 | 67 | 0.0 | 3.2 | 0.00 | 0.03 | 0.03 | 58 | 1004.6 |
| 20260504010404 | 6 | 67 | 0.0 | 8.0 | 0.00 | 0.03 | 0.03 | 58 | 1004.6 |
| 20260504005904 | 6 | 78 | 0.0 | 4.8 | 0.00 | 0.03 | 0.03 | 58 | 1004.6 |
| 20260504004404 | 6 | 96 | 4.8 | 14.5 | 0.00 | 0.03 | 0.03 | 57 | 1004.4 |
| 20260504003904 | 6 | 51 | 0.0 | 0.0 | 0.00 | 0.03 | 0.03 | 56 | 1004.3 |
| 20260504003404 | 6 | 51 | 0.0 | 0.0 | 0.00 | 0.03 | 0.03 | 55 | 1004.2 |
| 20260504002905 | 7 | 51 | 1.6 | 9.7 | 0.00 | 0.03 | 0.03 | 55 | 1004.1 |
| 20260504002404 | 7 | 44 | 0.0 | 14.5 | 0.00 | 0.03 | 0.03 | 55 | 1004.1 |
| 20260504001904 | 7 | 68 | 1.6 | 9.7 | 0.00 | 0.03 | 0.03 | 54 | 1003.9 |
| 20260504001405 | 7 | 59 | 1.6 | 8.0 | 0.00 | 0.03 | 0.03 | 54 | 1003.9 |
| 20260504000904 | 7 | 76 | 3.2 | 14.5 | 0.00 | 0.03 | 0.03 | 53 | 1003.8 |
| 20260503235905 | 7 | 64 | 3.2 | 12.9 | 0.00 | 0.03 | 0.03 | 52 | 1003.7 |
| 20260503235404 | 7 | 85 | 1.6 | 4.8 | 0.00 | 0.03 | 0.03 | 52 | 1003.6 |
| 20260503234905 | 7 | 85 | 3.2 | 16.1 | 0.00 | 0.03 | 0.03 | 51 | 1003.6 |
| 20260503234404 | 8 | 111 | 4.8 | 16.1 | 0.00 | 0.03 | 0.03 | 50 | 1003.5 |
| 20260503233904 | 8 | 86 | 4.8 | 29.0 | 0.00 | 0.03 | 0.03 | 50 | 1003.4 |
| 20260503233404 | 8 | 77 | 8.0 | 19.3 | 0.00 | 0.03 | 0.03 | 50 | 1003.4 |
| 20260503232404 | 8 | 101 | 1.6 | 20.9 | 0.00 | 0.03 | 0.03 | 49 | 1003.3 |
| 20260503231404 | 8 | 91 | 4.8 | 19.3 | 0.00 | 0.03 | 0.03 | 48 | 1003.3 |
| 20260503230904 | 8 | 100 | 12.9 | 32.2 | 0.00 | 0.03 | 0.03 | 48 | 1003.3 |
| 20260503230404 | 8 | 89 | 14.5 | 32.2 | 0.00 | 0.03 | 0.03 | 47 | 1003.2 |
| 20260503225905 | 8 | 86 | 4.8 | 12.9 | 0.00 | 0.03 | 0.03 | 47 | 1003.2 |
| 20260503225404 | 8 | 73 | 3.2 | 14.5 | 0.00 | 0.03 | 0.03 | 47 | 1003.0 |
| 20260503224905 | 8 | 95 | 4.8 | 22.5 | 0.00 | 0.03 | 0.03 | 47 | 1003.0 |
| 20260503224404 | 8 | 70 | 9.7 | 29.0 | 0.00 | 0.03 | 0.03 | 46 | 1003.0 |
| 20260503223904 | 8 | 105 | 11.3 | 33.8 | 0.00 | 0.03 | 0.03 | 46 | 1003.0 |
| 20260503223404 | 9 | 95 | 9.7 | 19.3 | 0.00 | 0.03 | 0.03 | 46 | 1002.9 |
| 20260503222404 | 8 | 111 | 8.0 | 25.7 | 0.00 | 0.03 | 0.03 | 47 | 1002.8 |
| 20260503221904 | 8 | 106 | 4.8 | 22.5 | 0.00 | 0.03 | 0.03 | 47 | 1002.8 |
| 20260503221404 | 8 | 110 | 4.8 | 20.9 | 0.00 | 0.03 | 0.03 | 46 | 1002.8 |
| 20260503220904 | 8 | 87 | 9.7 | 27.4 | 0.00 | 0.03 | 0.03 | 45 | 1002.7 |
| 20260503220405 | 9 | 76 | 9.7 | 33.8 | 0.00 | 0.03 | 0.03 | 45 | 1002.7 |
| 20260503215905 | 10 | 101 | 17.7 | 33.8 | 0.00 | 0.03 | 0.03 | 44 | 1002.6 |
| 20260503215404 | 10 | 85 | 8.0 | 32.2 | 0.00 | 0.03 | 0.03 | 44 | 1002.6 |
| 20260503214904 | 10 | 100 | 9.7 | 25.7 | 0.00 | 0.03 | 0.03 | 43 | 1002.5 |
| 20260503214404 | 10 | 85 | 16.1 | 38.6 | 0.00 | 0.03 | 0.03 | 43 | 1002.3 |
| 20260503213904 | 10 | 55 | 6.4 | 33.8 | 0.00 | 0.03 | 0.03 | 44 | 1002.4 |
| 20260503213404 | 10 | 79 | 14.5 | 38.6 | 0.00 | 0.03 | 0.03 | 43 | 1002.3 |